Location: DARK SKY Beskydy - Park tmavé oblohy, www.darkskybeskydy.cz
(49.4926°N, 18.5016°E)
Time: 10:55:46
(UTC+01:00)

Transit 2A - Visible Passes

Search period start: 25 February 2024 00:00
Search period end: 06 March 2024 00:00
Orbit: 600 x 953 km, 66.7° (Epoch: 24 February)

Date Brightness Start Highest point End Pass type
(mag) Time Alt. Az. Time Alt. Az. Time Alt. Az.
25 Feb 8.2 02:46:56 20° E 02:46:56 20° E 02:48:54 10° ESE visible
25 Feb 5.9 04:27:25 55° WSW 04:27:47 57° WSW 04:32:57 10° SSE visible
25 Feb 5.8 19:07:14 10° S 19:11:19 41° ESE 19:11:25 41° ESE visible
25 Feb 8.0 20:50:37 10° WSW 20:51:56 18° W 20:51:56 18° W visible
26 Feb 6.5 03:54:22 45° SSE 03:54:22 45° SSE 03:58:05 10° SSE visible
26 Feb 7.6 05:34:52 13° WSW 05:35:16 13° WSW 05:37:45 10° SW visible
26 Feb 6.4 18:32:45 10° S 18:36:27 28° ESE 18:38:39 18° ENE visible
26 Feb 6.6 20:15:12 10° WSW 20:19:09 42° NW 20:19:09 42° NW visible
27 Feb 7.9 03:21:29 19° SE 03:21:29 19° SE 03:23:02 10° SE visible
27 Feb 7.5 05:02:01 17° SW 05:02:01 17° SW 05:04:13 10° SSW visible
27 Feb 7.0 17:58:36 10° SSE 18:01:37 19° ESE 18:04:38 10° ENE visible
27 Feb 5.9 19:39:57 10° SW 19:44:14 60° NW 19:46:12 30° NNE visible
27 Feb 8.5 21:25:39 10° WNW 21:26:42 13° NW 21:26:42 13° NW visible
28 Feb 8.0 04:29:20 13° SSW 04:29:20 13° SSW 04:30:06 10° S visible
28 Feb 5.4 19:04:51 10° SW 19:09:11 88° NW 19:13:04 13° NE visible
28 Feb 8.0 20:49:49 10° WNW 20:52:55 19° NNW 20:53:33 18° NNW visible
29 Feb 5.5 18:29:55 10° SSW 18:34:12 62° ESE 18:38:32 10° NE visible
29 Feb 7.7 20:14:06 10° W 20:17:39 24° NW 20:20:14 15° N visible
01 Mar 6.0 17:55:11 10° S 17:59:16 41° ESE 18:03:22 10° NE visible
01 Mar 7.2 19:38:33 10° WSW 19:42:25 31° NW 19:46:24 10° NNE visible
01 Mar 8.6 21:25:42 10° NNW 21:27:00 11° NNW 21:27:13 11° NNW visible
02 Mar 6.7 19:03:08 10° WSW 19:07:15 42° NW 19:11:30 10° NNE visible
02 Mar 8.4 20:49:31 10° NW 20:51:35 13° NNW 20:53:36 10° N visible
03 Mar 6.1 18:27:52 10° SW 18:32:08 61° NW 18:36:33 10° NNE visible
03 Mar 8.3 20:13:32 10° WNW 20:16:12 15° NNW 20:18:54 10° N visible
04 Mar 8.0 19:37:42 10° WNW 19:40:51 19° NNW 19:44:05 10° NNE visible
05 Mar 7.7 19:01:59 10° W 19:05:34 24° NW 19:09:14 10° NNE visible
05 Mar 8.6 20:50:15 10° NNW 20:50:23 10° N 20:50:31 10° N visible
